Powrót do katalogu

NOAA 16 DEB

AktywnyPO
NORAD 41717·DEBRIS·🇺🇸 United States

Wystrzelony Sep 21, 2000 z Vandenberg Space Force Base

Loading…

Następne Przeloty (najbliższe 24 godziny)

TLE

ŚwieżeSource: Space-Track

Epoka: Sep 14, 2026, 09:09 UTC

1 41717U 00055PX  26257.38190691  .00006880  00000-0  15437-2 0  9993
2 41717  98.8321  49.2088 0014591 176.9797 183.1491 14.56835145542482

Śledź NOAA 16 DEB w czasie rzeczywistym z AllMySat

Download on the App Store